Terminal Aerodrome Forecast
Issued by NWS

Home | Current Version | Previous Version | Text Only | Print | Product List | Glossary On
Versions: 1 2 3 4 5 6 7 8 9 10 11 12 13 14 15 16 17 18 19 20 21 22 23 24 25 26 27 28 29 30 31 32 33 34 35 36 37 38 39 40 41 42 43 44 45 46 47 48 49 50
117
FTUS43 KMKX 270520
TAFENW
TAF
KENW 270520Z 2706/2806 23008KT P6SM SKC
     FM271600 27015KT P6SM FEW050
     FM271900 27014KT P6SM BKN050
     FM272300 28010KT P6SM -SHRA OVC050
     FM280200 29008KT P6SM -SHRA OVC025
     FM280500 29007KT P6SM -SHRA OVC015=

USA.gov is the U.S. government's official web portal to all federal, state and local government web resources and services.